Date String (YYYY-MM-DD hh:mm:ss) UTC,Instrument flags,Ambient pressure (hPa),Sample flow (lpm),Bypass flow (lpm),Sample temperature (°C),Ambient temperature (°C),ASC tube jacket temperature (°C),LED temperature (°C),Box temperature (°C),Sample RH (%),Span deviation,Mass concentration (μg/m³),Mass concentration (μg/m³),Mass concentration (μg/m³)
DateTimeUTC,F1_M11,P_M11,Q1_M11,Q2_M11,T1_M11,T2_M11,T3_M11,T4_M11,T5_M11,U1_M11,ZSPAN_M11,X0_M11,X2_M11,X1_M11
2023-02-09 07:00:00,,0825.9,5.00,0.00,22.5,21.2,00.0,31.4,24.2,07.9,0000.0,0005.64,0001.63,0001.02
2023-02-09 07:01:00,,0826.0,4.99,0.00,22.5,21.1,00.0,31.4,24.2,07.9,0000.0,0005.79,0001.59,0001.03
2023-02-09 07:02:00,,0825.9,4.98,0.00,22.5,21.0,00.0,31.4,24.2,08.1,0000.0,0005.54,0001.58,0001.05
2023-02-09 07:03:00,,0825.9,5.02,0.00,22.5,20.9,00.0,31.4,24.2,08.2,0000.0,0005.34,0001.53,0001.07
2023-02-09 07:04:00,,0825.9,5.01,0.00,22.4,20.9,00.0,31.3,24.1,08.1,0000.0,0005.24,0001.49,0001.09
2023-02-09 07:05:00,,0825.9,5.03,0.00,22.4,21.0,00.0,31.3,24.2,07.7,0000.0,0004.96,0001.47,0001.11
2023-02-09 07:06:00,,0826.0,4.95,0.00,22.5,21.9,00.0,31.3,24.4,07.6,0000.0,0004.98,0001.47,0001.11
2023-02-09 07:07:00,,0825.9,5.06,0.00,22.6,22.9,00.0,31.3,24.7,07.4,0000.0,0004.56,0001.41,0001.10
2023-02-09 07:08:00,,0826.1,5.00,0.00,22.7,23.0,00.0,31.3,24.7,07.2,0000.0,0004.34,0001.40,0001.10
2023-02-09 07:09:00,,0826.1,5.02,0.00,22.7,22.5,00.0,31.4,24.6,06.8,0000.0,0004.39,0001.41,0001.09
2023-02-09 07:10:00,,0826.1,4.99,0.00,22.7,22.1,00.0,31.4,24.5,07.1,0000.0,0004.26,0001.37,0001.08
2023-02-09 07:11:00,,0826.2,5.03,0.00,22.7,21.8,00.0,31.4,24.4,07.1,0000.0,0003.56,0001.35,0001.07
2023-02-09 07:12:00,,0826.2,5.03,0.00,22.7,21.6,00.0,31.5,24.4,06.4,0000.0,0003.51,0001.33,0001.05
2023-02-09 07:13:00,,0826.1,4.99,0.00,22.6,21.4,00.0,31.5,24.3,06.6,0000.0,0003.26,0001.36,0001.03
2023-02-09 07:14:00,,0826.1,5.00,0.00,22.6,21.3,00.0,31.5,24.3,06.8,0000.0,0003.34,0001.38,0001.01
2023-02-09 07:15:00,,0826.2,4.98,0.00,22.6,21.1,00.0,31.5,24.3,06.9,0000.0,0003.40,0001.39,0001.00
2023-02-09 07:16:00,,0826.1,5.08,0.00,22.6,21.6,00.0,31.4,24.4,06.9,0000.0,0003.54,0001.40,0000.99
2023-02-09 07:17:00,,0826.2,4.99,0.00,22.7,22.7,00.0,31.4,24.7,07.1,0000.0,0003.48,0001.39,0000.98
2023-02-09 07:18:00,,0826.1,4.96,0.00,22.8,23.0,00.0,31.5,24.8,07.2,0000.0,0004.60,0001.38,0000.96
2023-02-09 07:19:00,,0826.2,5.01,0.00,22.8,22.6,00.0,31.5,24.7,07.1,0000.0,0006.17,0001.37,0000.96
2023-02-09 07:20:00,,0826.2,4.92,0.00,22.8,22.2,00.0,31.6,24.6,06.9,0000.0,0006.25,0001.35,0000.96
2023-02-09 07:21:00,,0826.2,5.01,0.00,22.8,21.8,00.0,31.6,24.5,07.0,0000.0,0007.22,0001.36,0000.95
2023-02-09 07:22:00,,0826.2,5.01,0.00,22.8,21.5,00.0,31.6,24.4,07.1,0000.0,0007.53,0001.40,0000.93
2023-02-09 07:23:00,,0826.2,5.00,0.00,22.7,21.1,00.0,31.6,24.3,06.4,0000.0,0007.49,0001.46,0000.94
2023-02-09 07:24:00,,0826.2,5.01,0.00,22.7,20.9,00.0,31.6,24.3,06.3,0000.0,0008.10,0001.47,0000.94
2023-02-09 07:25:00,,0826.2,4.99,0.00,22.6,20.7,00.0,31.5,24.2,06.9,0000.0,0008.86,0001.54,0000.93
2023-02-09 07:26:00,,0826.2,5.01,0.00,22.6,20.6,00.0,31.5,24.1,07.1,0000.0,0009.56,0001.58,0000.93
2023-02-09 07:27:00,,0826.3,5.01,0.00,22.5,20.5,00.0,31.5,24.0,07.0,0000.0,0009.72,0001.61,0000.91
2023-02-09 07:28:00,,0826.4,4.97,0.00,22.5,20.3,00.0,31.5,24.0,06.8,0000.0,0010.35,0001.65,0000.92
2023-02-09 07:29:00,,0826.5,4.98,0.00,22.4,20.3,00.0,31.5,24.0,07.0,0000.0,0010.43,0001.65,0000.92
2023-02-09 07:30:00,,0826.4,5.00,0.00,22.4,20.3,00.0,31.4,24.0,07.2,0000.0,0009.90,0001.65,0000.92
2023-02-09 07:31:00,,0826.5,5.03,0.00,22.3,20.2,00.0,31.4,23.9,07.4,0000.0,0010.70,0001.64,0000.91
2023-02-09 07:32:00,,0826.5,5.00,0.00,22.3,20.2,00.0,31.4,23.9,07.7,0000.0,0010.82,0001.67,0000.91
2023-02-09 07:33:00,,0826.5,5.03,0.00,22.3,20.3,00.0,31.3,23.9,07.9,0000.0,0010.62,0001.62,0000.90
2023-02-09 07:34:00,,0826.5,5.03,0.00,22.3,21.2,00.0,31.3,24.1,08.1,0000.0,0010.29,0001.60,0000.89
2023-02-09 07:35:00,,0826.5,4.97,0.00,22.4,22.3,00.0,31.2,24.4,08.3,0000.0,0009.83,0001.61,0000.89
2023-02-09 07:36:00,,0826.5,4.98,0.00,22.5,22.3,00.0,31.3,24.4,08.2,0000.0,0009.39,0001.55,0000.88
2023-02-09 07:37:00,,0826.5,4.96,0.00,22.5,22.0,00.0,31.3,24.4,08.1,0000.0,0009.07,0001.54,0000.88
2023-02-09 07:38:00,,0826.6,4.93,0.00,22.5,21.6,00.0,31.3,24.3,08.1,0000.0,0009.78,0001.52,0000.89
2023-02-09 07:39:00,,0826.6,4.98,0.00,22.5,21.4,00.0,31.3,24.2,08.3,0000.0,0009.23,0001.50,0000.86
2023-02-09 07:40:00,,0826.7,5.02,0.00,22.5,21.2,00.0,31.3,24.2,08.4,0000.0,0008.68,0001.54,0000.85
2023-02-09 07:41:00,,0826.6,4.98,0.00,22.5,21.1,00.0,31.3,24.2,08.6,0000.0,0008.51,0001.56,0000.83
2023-02-09 07:42:00,,0826.7,4.99,0.00,22.5,20.9,00.0,31.3,24.2,08.5,0000.0,0008.28,0001.56,0000.81
2023-02-09 07:43:00,,0826.7,5.02,0.00,22.5,20.9,00.0,31.3,24.2,08.5,0000.0,0007.80,0001.52,0000.79
2023-02-09 07:44:00,,0826.7,4.97,0.00,22.4,20.8,00.0,31.3,24.2,08.7,0000.0,0007.70,0001.48,0000.78
2023-02-09 07:45:00,,0826.7,4.99,0.00,22.4,20.8,00.0,31.3,24.2,08.9,0000.0,0008.13,0001.45,0000.77
2023-02-09 07:46:00,,0826.7,4.96,0.00,22.4,20.8,00.0,31.3,24.1,08.9,0000.0,0007.95,0001.38,0000.75
2023-02-09 07:47:00,,0826.7,5.00,0.00,22.4,20.8,00.0,31.3,24.1,08.9,0000.0,0007.54,0001.31,0000.74
2023-02-09 07:48:00,,0826.7,5.02,0.00,22.4,20.8,00.0,31.3,24.1,08.9,0000.0,0006.84,0001.24,0000.72
2023-02-09 07:49:00,,0826.7,5.02,0.00,22.4,20.8,00.0,31.3,24.1,08.9,0000.0,0005.11,0001.16,0000.69
2023-02-09 07:50:00,,0826.7,4.94,0.00,22.4,20.7,00.0,31.3,24.1,08.9,0000.0,0004.87,0001.09,0000.67
2023-02-09 07:51:00,,0826.6,5.00,0.00,22.3,20.7,00.0,31.2,24.1,08.9,0000.0,0004.57,0001.02,0000.66
2023-02-09 07:52:00,,0826.7,4.98,0.00,22.4,21.4,00.0,31.2,24.2,08.6,0000.0,0004.14,0000.97,0000.64
2023-02-09 07:53:00,,0826.7,5.04,0.00,22.5,22.4,00.0,31.2,24.5,08.4,0000.0,0002.84,0000.90,0000.63
2023-02-09 07:54:00,,0826.8,5.03,0.00,22.6,23.1,00.0,31.2,24.7,08.6,0000.0,0002.49,0000.86,0000.62
2023-02-09 07:55:00,,0826.9,5.01,0.00,22.7,22.8,00.0,31.3,24.6,08.7,0000.0,0002.50,0000.88,0000.61
2023-02-09 07:56:00,,0826.9,4.96,0.00,22.7,22.4,00.0,31.3,24.5,08.8,0000.0,0001.69,0000.87,0000.60
2023-02-09 07:57:00,,0827.2,5.04,0.00,22.7,22.0,00.0,31.4,24.4,09.0,0000.0,0001.68,0000.86,0000.59
2023-02-09 07:58:00,,0826.9,5.03,0.00,22.6,21.8,00.0,31.4,24.4,08.8,0000.0,0001.70,0000.86,0000.57
2023-02-09 07:59:00,,0826.9,5.01,0.00,22.6,21.6,00.0,31.4,24.4,08.7,0000.0,0001.73,0000.86,0000.57
